Weather History for Savannah, GA

Change the Weather History Date:

Wednesday, September 19, 2012

  Actual Average Record
Temperature  
Mean Temperature 76 °F 76 °F  
Max Temperature 84 °F 85 °F 98 °F (1942)
Min Temperature 68 °F 67 °F 48 °F (1981)
Degree Days  
Heating Degree Days 0 0  
Month to date heating degree days 0 0  
Since 1 July heating degree days 0 0  
Cooling Degree Days 11 11  
Month to date cooling degree days 260 253  
Year to date cooling degree days 2389 2160  
Growing Degree Days 26 (Base 50)    
Moisture  
Dew Point 68 °F    
Average Humidity 78    
Maximum Humidity 97    
Minimum Humidity 58    
Precipitation  
Precipitation 0.00 in 0.14 in 2.75 in (1926)
Month to date precipitation 1.40 3.09  
Year to date precipitation 35.21 37.46  
Sea Level Pressure  
Sea Level Pressure 29.97 in    
Wind  
Wind Speed 6 mph (NW)    
Max Wind Speed 12 mph    
Max Gust Speed 15 mph    
Visibility 10 miles    
Events      
T = Trace of Precipitation, MM = Missing Value Source: NWS Daily Summary

Daily Weather History Graph

Daily Weather History Graph

Search for Another Location

Airport:

Trip Planner

Search our weather history database for the weather conditions in past years. The results will help you decide how hot, cold, wet, or windy it might be!

Date:

Astronomy

Sep. 19, 2012 Rise Set
Actual Time 7:11 AM EDT 7:24 PM EDT
Civil Twilight 6:46 AM EDT 7:49 PM EDT
Nautical Twilight 6:18 AM EDT 8:17 PM EDT
Astronomical Twilight 5:49 AM EDT 8:46 PM EDT
Moon 11:02 AM EDT (9/19) 9:51 PM EDT (9/19)
Length of Visible Light 13h 02m
Length of Day
12h 13m
Waxing Crescent, 17% of the Moon is Illuminated
Sep 19
Waxing Crescent
Sep 22
First Quarter
Sep 29
Full
Oct 8
Last Quarter
Oct 15
New

Hourly Weather History & Observations

Time (EDT) Temp. Heat Index Dew Point Humidity Pressure Visibility Wind Dir Wind Speed Gust Speed Precip Events Conditions
12:53 AM 72.0 °F - 69.1 °F 91% 29.87 in 10.0 mi SW 5.8 mph - N/A   Scattered Clouds
1:53 AM 72.0 °F - 69.1 °F 91% 29.88 in 10.0 mi SW 4.6 mph - N/A   Mostly Cloudy
2:53 AM 71.1 °F - 69.1 °F 93% 29.87 in 10.0 mi SW 4.6 mph - N/A   Overcast
3:53 AM 70.0 °F - 68.0 °F 93% 29.87 in 10.0 mi WSW 4.6 mph - N/A   Overcast
4:53 AM 69.1 °F - 68.0 °F 96% 29.88 in 10.0 mi West 4.6 mph - N/A   Scattered Clouds
5:53 AM 68.0 °F - 66.9 °F 96% 29.89 in 10.0 mi West 3.5 mph - N/A   Scattered Clouds
6:53 AM 68.0 °F - 66.0 °F 93% 29.92 in 10.0 mi WSW 3.5 mph - N/A   Mostly Cloudy
7:53 AM 68.0 °F - 66.9 °F 96% 29.94 in 8.0 mi West 4.6 mph - N/A   Mostly Cloudy
8:46 AM 69.8 °F - 66.2 °F 88% 29.96 in 9.0 mi WNW 8.1 mph - N/A   Mostly Cloudy
8:53 AM 69.1 °F - 66.0 °F 90% 29.96 in 9.0 mi WNW 6.9 mph - N/A   Mostly Cloudy
9:06 AM 69.8 °F - 66.2 °F 88% 29.96 in 9.0 mi NW 9.2 mph - N/A   Overcast
9:53 AM 70.0 °F - 66.9 °F 90% 29.98 in 9.0 mi NW 8.1 mph - N/A   Overcast
10:53 AM 72.0 °F - 66.9 °F 84% 29.99 in 9.0 mi NNW 5.8 mph - N/A   Overcast
11:53 AM 73.0 °F - 68.0 °F 84% 30.00 in 10.0 mi WNW 8.1 mph - N/A   Overcast
12:19 PM 73.4 °F - 68.0 °F 83% 30.01 in 10.0 mi North 5.8 mph - N/A   Overcast
12:53 PM 75.0 °F - 68.0 °F 79% 30.01 in 10.0 mi North 8.1 mph - N/A   Overcast
1:33 PM 78.8 °F - 68.0 °F 69% 30.01 in 10.0 mi North 8.1 mph - N/A   Mostly Cloudy
1:49 PM 78.8 °F - 68.0 °F 69% 30.00 in 10.0 mi NNW 6.9 mph - N/A   Mostly Cloudy
1:53 PM 78.1 °F - 68.0 °F 71% 30.00 in 10.0 mi Variable 5.8 mph - N/A   Mostly Cloudy
2:53 PM 81.0 °F 83.8 °F 68.0 °F 65% 29.99 in 10.0 mi Calm Calm - N/A   Mostly Cloudy
3:00 PM 82.4 °F 85.4 °F 68.0 °F 62% 29.98 in 10.0 mi WNW 6.9 mph - N/A   Mostly Cloudy
3:11 PM 82.4 °F 85.4 °F 68.0 °F 62% 29.98 in 10.0 mi Variable 3.5 mph - N/A   Mostly Cloudy
3:53 PM 84.0 °F 87.0 °F 68.0 °F 58% 29.98 in 10.0 mi WNW 6.9 mph - N/A   Mostly Cloudy
4:53 PM 82.9 °F 85.4 °F 66.9 °F 58% 29.98 in 10.0 mi WNW 6.9 mph - N/A   Mostly Cloudy
5:53 PM 82.0 °F 84.5 °F 66.9 °F 60% 29.99 in 10.0 mi NNE 6.9 mph - N/A   Mostly Cloudy
6:53 PM 79.0 °F - 68.0 °F 69% 30.00 in 10.0 mi NNE 8.1 mph - N/A   Mostly Cloudy
7:53 PM 77.0 °F - 68.0 °F 74% 30.02 in 10.0 mi NNE 6.9 mph - N/A   Mostly Cloudy
8:53 PM 73.9 °F - 68.0 °F 82% 30.03 in 10.0 mi NE 10.4 mph - N/A   Mostly Cloudy
9:53 PM 72.0 °F - 68.0 °F 87% 30.06 in 10.0 mi NE 8.1 mph - N/A   Mostly Cloudy
10:53 PM 71.1 °F - 66.0 °F 84% 30.07 in 10.0 mi NE 6.9 mph - N/A   Overcast
11:53 PM 69.1 °F - 66.0 °F 90% 30.08 in 10.0 mi Calm Calm - N/A   Overcast